sat.trackr.live / text

‹ back to catalog

STARLINK-31219

NORAD 58866 · 2024-019P

PAYLOAD ACTIVE UNKNOWN

§ Identity

Operator
Country
US
Launch date
2024-01-29
Launch site
AFETR
Launch vehicle
Mass (kg)
RCS (m²)

Purposes: comms

External: N2YO · Heavens-Above · Gunter

§ Orbital elements

Epoch: 2026-09-20T14:11:59.784288Z

Period
94.27 min
Inclination
43.0010°
Eccentricity
0.0001013
Mean motion
15.27577228 rev/d
Perigee alt
482.4 km
Apogee alt
483.8 km
Semi-major
6,861.2 km
B*
2.1020e-5
RAAN
227.9191°
Arg perigee
278.8802°
Mean anomaly
81.1935°
Rev number
14,887

§ Raw data

STARLINK-312191 58866U 24019P   26263.59166417  .00000316  00000+0  21020-4 0  99952 58866  43.0010 227.9191 0001013 278.8802  81.1935 15.27577228148875

JSON: /api/v1/satellites/58866 · /tle

For live sub-satellite position, see the globe view (requires WebGL).

§ Visibility from observer

Set your observer location to see the next 7 days of passes ≥ 10°. The values pass through the URL so the page stays shareable.

No JS? Fill the form by hand. The geolocation button needs JavaScript.